IZ3VCM Weather Reports


Display with metric or nautical units.
time (UTC)temp
F
wind
direction
speed
MPH
gust
MPH
rain 1hr
in
rain 24hr
in
rain mn
in
humidity
%
barometer
mb
20260510123005 68 46 1.0 4.0 0.00 0.02 0.02 78 1012.1
20260510121503 68 45 0.0 1.0 0.02 0.02 0.02 80 1012.2
20260510120006 68 0 0.0 0.0 0.02 0.02 0.02 82 1012.3
20260510114502 67 30 3.0 5.0 0.02 0.02 0.02 85 1012.5
20260510113005 65 37 1.0 2.0 0.02 0.02 0.02 86 1012.5
20260510111502 64 0 0.0 0.0 0.00 0.00 0.00 86 1012.5
20260510110005 65 45 0.0 2.0 0.00 0.00 0.00 85 1012.7
20260510104503 66 45 1.0 4.0 0.00 0.00 0.00 85 1012.8
20260510103005 66 0 0.0 0.0 0.00 0.00 0.00 84 1012.8
20260510101502 66 0 0.0 0.0 0.00 0.00 0.00 84 1013.1
20260510100005 66 0 0.0 0.0 0.00 0.00 0.00 85 1013.3
20260510094502 66 0 0.0 0.0 0.00 0.00 0.00 85 1013.3
20260510093006 65 0 0.0 0.0 0.00 0.00 0.00 85 1013.4
20260510091503 65 0 0.0 0.0 0.00 0.00 0.00 84 1013.4
20260510090004 65 86 1.0 3.0 0.00 0.00 0.00 85 1013.4
20260510084503 64 0 0.0 0.0 0.00 0.00 0.00 85 1013.5
20260510083005 64 0 0.0 0.0 0.00 0.00 0.00 84 1013.7
20260510081502 64 0 0.0 0.0 0.00 0.00 0.00 84 1013.6
20260510080005 64 112 0.0 4.0 0.00 0.00 0.00 84 1013.6
20260510074503 64 0 0.0 0.0 0.00 0.00 0.00 84 1013.2
20260510073005 63 85 1.0 2.0 0.00 0.00 0.00 84 1013.3
20260510071502 63 109 2.0 4.0 0.00 0.00 0.00 84 1013.1
20260510070006 63 68 0.0 1.0 0.00 0.00 0.00 84 1013.1
20260509221504 61 0 0.0 0.0 0.00 0.00 0.00 74 1014.7
20260509220006 62 0 0.0 0.0 0.00 0.00 0.00 74 1014.6
20260509214503 62 169 2.0 4.0 0.00 0.00 0.00 73 1014.7
20260509213006 62 0 0.0 0.0 0.00 0.00 0.00 72 1014.6
20260509211504 62 0 0.0 0.0 0.00 0.00 0.00 71 1014.5
20260509210006 63 0 0.0 0.0 0.00 0.00 0.00 69 1014.8
20260509204504 64 157 0.0 2.0 0.00 0.00 0.00 68 1014.8
20260509203005 64 0 0.0 0.0 0.00 0.00 0.00 67 1014.8
20260509201503 64 0 0.0 0.0 0.00 0.00 0.00 66 1014.7
20260509200005 64 0 0.0 0.0 0.00 0.00 0.00 65 1014.5
20260509194504 65 0 0.0 0.0 0.00 0.00 0.00 65 1014.5
20260509193005 65 0 0.0 0.0 0.00 0.00 0.00 65 1014.2
20260509191503 66 135 0.0 1.0 0.00 0.00 0.00 63 1014.1
20260509190006 67 0 0.0 0.0 0.00 0.00 0.00 62 1014.0
20260509184503 68 135 1.0 3.0 0.00 0.00 0.00 61 1013.9
20260509183005 69 0 0.0 0.0 0.00 0.00 0.00 59 1013.9
20260509181504 70 121 1.0 2.0 0.00 0.00 0.00 58 1013.8
20260509180006 71 0 0.0 0.0 0.00 0.00 0.00 57 1013.7
20260509174504 72 0 0.0 0.0 0.00 0.00 0.00 55 1013.6
20260509173006 76 0 0.0 0.0 0.00 0.00 0.00 49 1013.6
20260509171504 78 0 0.0 0.0 0.00 0.00 0.00 46 1013.7
20260509170005 80 0 0.0 0.0 0.00 0.00 0.00 44 1013.6
20260509164503 80 156 0.0 1.0 0.00 0.00 0.00 45 1013.8
20260509163005 80 135 1.0 2.0 0.00 0.00 0.00 46 1013.8
20260509161504 80 0 0.0 0.0 0.00 0.00 0.00 46 1013.9
20260509160006 82 112 1.0 2.0 0.00 0.00 0.00 44 1014.0
20260509154503 83 0 0.0 0.0 0.00 0.00 0.00 44 1014.1
20260509153005 83 150 1.0 3.0 0.00 0.00 0.00 44 1014.0
20260509151503 84 225 0.0 1.0 0.00 0.00 0.00 42 1014.1
20260509150005 83 247 2.0 2.0 0.00 0.00 0.00 43 1014.2
20260509144503 83 0 0.0 0.0 0.00 0.00 0.00 43 1014.2
20260509143005 83 231 2.0 8.0 0.00 0.00 0.00 43 1014.4
20260509141503 80 181 2.0 10.0 0.00 0.00 0.00 49 1014.6
20260509140006 79 0 0.0 0.0 0.00 0.00 0.00 49 1014.7
20260509134503 80 203 1.0 5.0 0.00 0.00 0.00 46 1014.8
20260509133005 83 220 2.0 4.0 0.00 0.00 0.00 45 1014.8
20260509131507 85 177 3.0 6.0 0.00 0.00 0.00 44 1014.9
20260509130005 86 135 0.0 1.0 0.00 0.00 0.00 46 1015.1
20260509124507 84 0 0.0 0.0 0.00 0.00 0.00 45 1015.1